Helicity
42 9 -27 -43 76 66 77 107 1 21 51 -53 -7 30 3 -14 -3 16 -39 -23 -18 -36 -28 -9 5 26 46 61 47 65 73 48 42 65 71 72 72 85 110 131 156 179 139 74 52 79 130 148 136
4 -50 -68 -12 72 185 215 103 77 -2 -51 -7 17 -12 12 15 -31 12 7 -34 -15 -22 -5 -5 -2 -5 29 76 51 63 74 80 75 65 69 63 79 106 135 140 158 140 86 57 44 52 92 101 122
-56 -68 -32 27 101 236 173 20 -7 -17 -45 -3 2 6 -21 -42 -34 3 12 -11 -20 -5 -6 -8 23 38 48 53 54 66 76 83 77 74 77 79 94 103 98 101 143 99 36 8 22 45 68 72 110
-49 -29 27 125 151 58 22 -25 -12 -13 3 13 9 41 -45 -82 -22 11 -7 -10 3 0 20 22 30 36 40 39 42 42 52 65 78 97 101 88 86 94 93 80 80 57 84 35 46 41 38 41 75
-24 4 108 78 23 -56 -34 53 58 114 98 25 -13 -1 -27 12 37 35 8 4 22 -4 1 18 38 31 22 31 48 55 60 63 71 87 93 92 102 97 94 83 62 53 52 62 68 57 49 36 57
29 4 67 81 55 -25 8 -1 52 63 -3 -9 30 25 21 10 79 -12 -12 14 10 23 37 32 31 35 38 40 44 44 51 67 86 99 98 104 102 95 82 82 73 60 66 73 72 62 62 59 63
103 67 78 35 19 27 36 38 57 34 28 -6 16 28 0 -21 6 -1 12 53 36 29 18 21 29 28 28 32 38 54 69 83 91 79 79 74 63 62 67 78 83 86 84 82 75 69 56 65 61
75 60 42 -11 8 -3 -14 50 -17 10 -16 16 42 34 20 -29 49 70 81 67 44 27 28 35 31 33 25 26 44 56 63 66 59 47 70 60 58 59 61 65 65 71 76 86 99 84 67 63 68
48 84 34 4 14 26 28 21 17 -46 -26 10 -9 8 18 132 101 141 108 92 46 35 29 31 43 47 60 55 58 28 44 44 31 40 51 52 37 36 47 53 71 83 87 85 89 80 71 64 62
22 39 15 -6 15 96 100 65 42 23 40 35 8 15 93 158 134 179 165 138 82 40 22 44 64 62 89 70 65 26 31 41 57 60 75 63 58 49 49 57 78 73 72 64 68 71 69 66 46
20 17 -8 -9 5 28 71 68 57 60 39 52 95 128 179 171 167 232 223 188 133 88 88 105 81 79 86 67 67 61 56 52 66 73 77 82 80 75 73 80 78 71 75 62 66 74 77 75 68
30 52 70 28 11 16 5 -4 8 29 46 68 133 200 193 181 146 177 200 185 203 187 155 131 104 98 110 108 91 75 80 78 80 86 101 114 109 107 107 98 84 79 80 80 82 82 82 85 77
40 52 50 28 51 41 -2 28 16 21 47 77 111 179 218 149 85 75 107 147 194 190 179 145 131 123 138 145 126 101 89 101 129 138 113 111 113 106 108 109 114 105 113 105 106 102 103 98 96
36 26 32 7 50 56 45 57 0 -16 38 121 192 202 177 139 97 77 79 154 189 169 171 149 113 126 137 144 147 136 141 150 167 161 140 127 125 122 125 130 136 138 121 109 100 103 108 106 103
19 20 -18 -5 29 19 33 23 50 39 53 139 200 206 172 102 98 120 164 216 216 186 187 160 141 157 136 127 140 149 145 169 178 170 152 143 149 139 136 143 145 130 120 115 116 112 110 114 110
-7 -8 38 23 -19 -18 35 62 47 48 65 122 162 189 202 124 97 133 191 247 228 239 226 172 153 165 130 109 99 104 116 139 139 142 147 136 135 140 155 160 153 147 139 137 126 114 106 98 98
14 15 5 22 -17 -40 27 96 77 -14 51 91 121 211 221 107 56 105 160 213 260 235 236 169 143 156 135 104 100 100 109 120 126 149 149 127 136 141 152 149 141 146 149 146 144 134 126 112 110
-5 -15 -9 1 -18 -61 -45 35 77 25 81 68 34 113 138 69 6 26 101 177 227 210 183 139 109 106 121 110 108 117 124 128 145 155 176 165 175 178 173 161 161 176 172 164 173 147 136 133 114
-27 -30 -12 -20 -1 -55 -7 39 24 -13 64 57 46 99 126 97 56 56 124 193 214 213 180 126 98 77 170 141 142 115 155 184 203 185 174 182 193 208 234 226 212 226 221 201 198 196 169 156 151
-4 -7 -9 -4 0 8 9 47 73 73 62 44 64 75 106 135 123 85 65 66 99 135 123 105 66 67 141 159 157 137 149 170 237 259 233 227 236 248 288 302 289 300 307 268 276 309 295 234 226
-22 28 -21 18 36 46 2 40 81 52 66 86 88 105 94 84 64 14 6 28 73 94 89 74 95 119 127 135 156 168 188 188 229 247 291 295 324 304 338 355 373 387 418 396 387 392 384 340 326
-13 23 44 -5 36 40 43 72 116 47 79 125 112 82 32 11 15 41 49 46 55 30 66 83 90 100 107 138 169 192 229 217 254 246 274 278 334 328 347 367 416 439 489 475 468 488 498 521 501
7 18 25 58 72 68 51 91 82 98 99 100 101 19 25 44 27 15 32 30 25 65 82 120 137 141 145 151 149 166 192 222 249 230 224 228 249 292 306 337 392 477 513 490 519 606 730 713 732
2 35 39 65 68 65 65 70 98 112 44 33 54 62 36 36 31 51 73 103 136 192 230 246 239 240 257 199 146 132 151 199 205 194 173 176 221 230 262 380 515 575 682 794 783 855 816 715 758
38 40 41 65 67 40 63 74 115 119 145 118 65 38 94 90 93 91 128 159 223 271 295 276 265 241 207 162 133 124 148 146 155 175 206 194 201 233 314 478 710 886 871 905 922 961 626 763 777
19 15 33 46 72 47 67 98 98 127 117 33 12 61 83 96 57 130 232 270 258 262 256 217 200 178 145 138 149 181 170 176 182 187 193 180 239 364 528 736 846 821 782 885 784 540 556 320 201
27 40 21 54 73 97 75 46 44 155 97 -59 -75 -40 78 174 177 227 202 201 207 190 155 146 143 124 126 153 163 158 177 172 170 193 214 247 342 443 554 597 627 620 645 561 368 206 165 36 63
63 41 60 74 107 105 120 70 93 96 44 -10 -15 20 45 90 161 161 146 119 110 108 102 85 106 135 126 129 150 143 124 147 181 247 269 299 352 396 403 421 403 384 322 95 -19 -22 -12 11 94
62 110 114 80 107 127 155 196 165 67 40 80 61 69 84 92 85 92 105 105 91 98 90 79 125 114 103 123 127 99 122 160 236 267 308 342 313 273 260 232 196 69 -141 -28 40 77 88 109 118
94 107 70 111 146 192 229 288 56 142 -1 57 83 111 114 101 109 72 35 61 76 58 70 81 95 89 74 89 77 55 89 173 256 259 237 236 229 216 157 147 106 80 67 93 106 105 110 122 125
Wind_Speed
41 37 26 27 27 23 22 28 28 26 32 30 30 32 32 32 30 29 22 21 24 28 29 29 27 25 27 31 33 31 31 30 29 27 25 23 20 18 20 22 23 26 32 34 32 29 27 23 21
36 27 24 24 24 21 29 33 30 25 27 32 31 31 36 36 34 23 22 22 27 27 26 25 27 28 28 33 33 35 35 32 31 28 27 24 22 22 21 23 25 34 32 36 37 28 24 19 15
26 23 23 22 26 28 28 27 22 24 21 30 29 34 37 34 29 23 23 24 26 29 30 28 29 28 30 30 31 34 35 37 37 34 31 31 28 26 26 29 34 36 34 34 36 31 28 24 22
23 24 26 24 26 32 30 21 27 25 27 31 28 36 36 34 30 25 26 26 26 26 27 28 28 28 30 31 33 35 36 36 37 35 33 32 32 30 31 36 33 33 37 34 34 33 29 28 30
24 24 20 22 26 30 34 32 27 30 30 33 33 36 36 34 30 33 32 27 26 26 27 28 28 29 30 32 36 38 39 39 37 35 34 31 32 31 31 33 32 33 35 36 34 33 30 30 33
24 25 18 22 25 28 31 34 33 33 32 31 36 36 34 28 27 30 31 29 27 26 25 27 28 29 32 33 34 34 35 36 36 36 35 34 31 30 30 30 31 31 34 36 36 33 28 31 39
26 20 17 20 26 29 31 32 33 32 32 32 30 38 29 25 26 25 26 28 26 25 24 25 26 27 30 32 31 32 33 32 31 31 31 31 31 31 32 33 34 35 37 37 35 34 34 40 40
18 16 20 21 25 32 33 33 33 33 32 33 32 31 24 24 24 21 20 21 22 21 24 24 25 27 29 29 30 31 30 28 28 28 30 31 32 33 33 33 33 34 35 36 36 36 36 38 41
36 17 21 24 28 20 27 29 25 30 35 29 26 33 33 45 43 40 36 29 23 22 26 25 25 24 25 22 25 27 28 29 30 29 29 31 32 33 33 33 33 34 36 37 39 39 40 42 44
31 8 23 29 33 31 27 33 31 34 37 32 36 35 43 42 39 38 34 32 30 30 28 27 24 21 20 20 22 24 27 28 30 28 26 28 30 30 31 32 34 37 38 38 39 39 41 43 47
27 27 35 31 30 34 30 27 28 37 29 33 34 36 38 37 37 34 33 30 30 28 25 22 21 20 19 15 17 20 23 26 28 30 27 27 28 28 29 30 33 34 35 37 38 41 43 44 45
29 33 35 30 34 31 27 27 27 28 27 32 33 37 38 36 32 32 30 28 25 21 20 20 20 23 25 23 15 17 20 23 25 27 26 24 25 26 26 28 31 33 35 36 37 39 41 44 47
28 30 28 25 26 26 25 24 26 26 26 30 32 33 33 31 30 29 25 24 24 22 20 19 22 23 27 25 22 18 19 20 25 27 28 27 28 29 30 31 33 35 34 36 38 40 43 45 47
27 27 27 24 27 26 24 25 28 24 24 25 27 27 27 26 26 25 23 23 23 20 17 18 21 26 28 28 25 23 22 24 26 27 29 31 30 32 35 36 36 36 36 39 41 42 41 42 43
24 25 24 23 28 28 23 27 26 17 21 20 20 23 25 24 22 21 20 19 20 16 15 15 20 25 27 28 27 26 26 28 30 31 32 34 34 36 36 36 37 38 37 38 41 43 44 46 45
24 23 24 23 22 23 19 28 20 16 17 15 18 18 19 21 18 16 16 16 15 14 13 15 20 24 28 30 30 30 32 33 33 32 34 36 36 36 38 38 38 35 36 38 41 43 46 48 49
24 26 24 24 28 29 18 27 21 21 14 16 17 16 14 10 8 8 9 8 9 10 12 15 22 26 31 34 36 37 39 38 38 38 37 36 35 35 36 36 36 36 39 41 43 44 47 50 52
26 26 28 24 34 44 40 26 32 8 12 14 12 11 7 5 13 22 14 9 9 11 13 18 23 28 32 37 39 42 44 42 40 39 38 37 36 36 36 38 38 37 42 43 43 46 48 51 54
35 39 40 41 43 52 42 44 49 47 29 30 33 23 20 24 34 35 20 15 13 14 16 20 25 28 32 39 44 45 46 47 45 42 40 38 39 40 40 42 41 40 42 43 42 46 49 52 52
42 47 49 46 53 52 52 50 49 38 33 33 32 31 29 30 33 33 28 23 18 18 20 23 24 32 32 38 44 46 53 53 53 48 44 43 43 42 42 43 43 43 45 45 44 45 50 51 48
46 34 36 5 52 34 55 36 42 39 35 34 35 34 34 32 31 30 28 24 26 25 23 24 32 39 40 41 47 53 58 62 66 61 58 53 49 48 48 48 49 49 48 51 51 50 52 56 53
49 40 49 10 36 30 49 35 47 37 35 37 36 33 30 29 29 28 28 29 29 29 34 40 46 51 54 53 54 57 63 72 72 72 70 67 60 57 54 55 54 55 53 54 53 50 54 56 60
47 60 51 33 27 29 44 35 44 46 39 38 34 31 31 31 29 30 29 30 33 42 47 52 56 57 57 59 60 65 71 74 79 80 81 76 72 64 61 59 59 59 55 54 50 48 47 49 52
58 51 39 32 30 33 34 44 48 44 43 36 34 39 40 34 32 35 37 41 47 51 54 55 56 55 60 69 75 77 80 85 87 86 84 79 74 69 63 59 56 51 45 42 44 45 46 50 51
54 48 39 33 36 35 38 46 32 37 47 44 43 48 46 36 39 41 44 44 46 51 52 54 60 64 74 83 85 89 91 91 88 84 81 82 81 75 68 53 46 40 36 40 43 45 50 58 62
46 43 38 39 41 47 50 40 29 23 45 47 60 59 56 48 45 44 45 45 49 50 57 64 70 79 87 89 92 88 86 84 83 83 83 81 73 62 53 45 38 38 39 46 50 58 66 69 69
43 45 38 41 43 48 46 35 26 19 49 63 72 60 56 51 53 51 48 53 56 65 71 75 79 88 90 89 86 87 90 92 89 81 75 69 58 49 43 40 41 46 50 54 54 59 60 61 64
39 38 46 50 54 56 46 47 32 41 73 86 80 57 56 53 50 50 53 58 68 75 77 78 78 85 84 85 89 95 100 91 80 71 67 58 48 42 42 44 50 58 59 55 48 52 56 64 70
44 44 44 42 43 51 60 47 44 64 69 74 55 56 56 47 51 55 62 69 77 80 77 79 79 87 87 87 93 99 98 85 73 64 55 47 42 41 46 52 60 54 46 46 51 60 65 69 73
32 35 44 51 52 49 52 58 47 47 70 58 58 57 58 51 57 61 64 75 79 82 84 87 84 88 86 89 95 97 91 79 67 56 49 44 44 46 52 49 45 45 49 55 61 67 71 77 81
Wind_Direction
323 328 355 350 336 341 359 342 344 343 351 12 20 30 25 2 352 345 7 38 49 53 55 52 34 19 16 25 19 23 28 33 28 24 18 19 21 22 17 11 7 5 354 351 357 353 356 2 5
330 349 358 356 1 9 344 339 344 8 55 43 20 3 353 353 346 11 13 44 52 49 40 32 42 35 20 19 19 22 18 11 4 2 0 3 1 357 356 344 336 332 345 342 339 351 359 2 359
352 356 2 348 346 347 338 350 12 39 59 357 359 352 348 350 360 11 44 58 54 53 50 42 40 29 14 10 7 2 358 355 353 353 354 349 347 348 342 332 325 326 336 340 338 343 342 342 339
10 2 17 26 4 360 2 9 39 36 4 344 352 340 349 347 3 37 66 61 45 43 39 38 25 18 12 5 3 358 356 354 352 353 356 352 346 343 338 328 333 333 331 332 335 339 340 337 331
9 10 5 10 5 21 34 30 23 11 359 354 348 347 336 352 41 74 76 56 43 45 39 34 26 15 16 7 2 358 357 355 356 356 355 353 348 348 343 337 338 336 333 332 331 333 335 333 329
7 17 1 356 356 16 17 24 17 9 13 10 5 10 2 29 68 81 75 56 51 42 21 10 10 14 14 11 8 5 1 358 356 356 359 358 359 358 356 350 349 345 341 338 335 337 342 334 324
15 4 5 17 7 11 5 359 13 25 23 29 35 353 9 55 76 76 64 50 46 37 28 22 26 27 22 17 16 11 8 6 6 5 10 10 10 4 358 352 350 347 345 345 347 350 346 330 327
338 337 12 360 15 3 342 85 74 46 43 32 30 39 75 100 88 79 51 47 26 33 27 34 31 26 23 26 28 30 37 39 33 25 21 17 15 15 10 3 358 356 352 351 354 355 354 347 339
156 6 25 18 4 260 181 165 159 138 111 137 149 126 129 118 122 119 119 104 100 99 112 104 99 91 80 84 66 66 70 70 62 55 42 30 23 22 20 14 7 3 357 353 351 348 345 342 338
182 228 216 189 169 171 166 145 140 119 111 127 116 113 99 108 110 112 117 122 123 126 124 126 116 111 86 71 52 49 44 40 33 31 32 21 16 15 12 9 1 352 349 348 347 346 344 339 332
187 197 173 175 177 173 176 177 162 93 146 126 120 107 110 115 122 117 121 119 122 115 101 94 85 67 53 60 52 38 28 22 17 12 10 4 1 358 356 353 349 349 346 343 341 340 339 337 335
180 170 156 161 152 162 168 173 182 158 151 135 130 117 121 126 134 133 127 130 115 108 97 95 71 53 39 39 54 35 21 14 10 8 6 4 357 353 349 347 345 344 341 339 338 335 333 331 329
173 173 181 187 180 178 180 188 192 189 155 142 135 127 126 129 130 135 134 132 124 117 107 86 61 49 33 30 28 23 14 10 4 1 357 352 346 343 341 339 337 335 337 336 335 333 329 327 326
182 188 195 192 187 181 175 184 204 199 138 129 135 143 135 127 127 125 125 130 128 120 106 74 52 40 32 24 20 14 8 2 356 352 349 347 341 335 332 330 329 330 331 331 329 328 328 328 328
188 186 209 196 195 176 129 196 166 127 89 133 139 152 152 148 131 141 135 121 122 118 96 70 43 32 26 20 14 5 358 351 346 342 340 339 336 332 329 326 325 324 326 326 326 324 323 322 323
215 213 248 259 196 222 94 202 187 98 70 139 148 148 150 156 146 129 124 120 115 99 89 62 37 23 14 7 5 360 352 346 342 339 336 334 333 331 328 325 322 322 322 322 320 320 319 318 317
273 234 232 192 274 266 159 231 217 210 183 158 150 149 147 133 102 91 83 83 90 74 60 35 19 10 3 0 357 353 348 344 340 337 333 330 329 328 325 323 321 319 317 316 315 314 315 314 314
217 235 243 187 258 286 270 236 249 63 104 134 118 112 101 74 355 345 356 9 30 39 39 22 13 6 3 0 356 350 347 343 340 335 331 327 324 322 320 318 315 312 311 311 310 309 310 310 310
265 288 279 274 333 295 271 271 287 313 9 14 10 26 10 354 343 342 350 4 20 22 16 7 4 7 2 353 351 348 345 341 337 330 326 323 319 315 312 310 309 305 303 304 304 306 306 307 309
302 304 310 296 300 321 329 317 337 360 7 9 21 26 28 18 12 15 32 36 37 22 4 358 354 351 349 345 345 346 346 341 335 330 322 317 313 309 306 303 301 299 298 299 298 298 302 304 305
302 348 290 96 298 6 323 -0 359 2 15 14 11 13 16 21 27 32 29 27 8 2 0 353 343 339 339 336 336 335 335 335 333 328 324 317 310 304 300 298 296 295 293 292 293 292 294 297 301
303 353 335 219 7 19 350 357 352 359 4 360 360 6 11 18 21 15 7 358 352 347 343 340 336 333 332 333 330 330 328 326 327 325 322 320 314 305 298 295 293 291 291 291 292 293 294 298 296
341 302 327 358 12 15 358 6 351 353 355 352 356 1 2 8 11 3 357 352 348 341 339 338 337 337 339 339 335 332 328 326 324 323 320 318 315 309 302 297 294 293 294 294 295 295 298 300 301
318 335 354 9 13 357 2 356 350 357 4 5 3 358 358 353 353 352 352 348 343 342 342 344 344 344 343 339 334 331 329 328 326 324 323 322 320 316 309 303 300 298 298 299 301 302 302 303 302
331 341 342 357 353 351 354 347 1 16 9 4 3 356 352 347 345 344 342 343 347 347 348 347 344 340 338 334 331 329 327 327 325 325 324 322 320 319 317 313 309 307 303 305 302 303 303 305 304
338 348 345 341 341 338 342 344 353 26 11 8 352 347 347 346 346 345 349 352 350 349 346 342 339 336 334 333 331 330 330 329 327 325 324 322 322 324 327 328 325 321 314 311 308 304 305 302 301
335 337 349 342 339 336 343 355 352 345 334 344 343 346 350 352 350 350 351 350 348 342 338 335 333 332 332 334 335 335 333 329 326 326 327 327 329 329 330 330 326 323 318 315 311 310 309 305 304
348 351 335 337 331 332 338 339 337 332 324 328 335 346 346 348 351 351 347 343 339 336 336 335 334 334 335 335 334 332 330 329 328 328 329 330 331 331 330 327 324 321 317 314 311 309 308 306 305
337 337 344 345 343 335 331 338 339 330 336 337 346 347 348 350 348 344 339 337 333 334 337 337 334 333 332 332 331 331 331 330 330 328 331 333 333 331 327 326 323 322 320 317 314 312 310 309 308
2 355 349 338 334 332 329 332 350 356 346 348 346 347 347 346 340 338 336 335 334 334 333 333 334 334 334 333 332 332 333 332 331 332 332 332 330 331 329 329 330 328 323 319 316 313 312 310 309